CCCVR SCSF-SCTB

Flight info

Callsign CCCVR
Flight time 0h 28m
Altitude 5000
Route VFR
Aircraft PA24/L-VGD/A

Departure

Time 2026-04-26 16:51
Airport Víctor Lafón Airport (SCSF)

Arrival

Time 2026-04-26 17:20
Airport Eulogio Sánchez Airport (SCTB)
Time Latitude Longitude Altitude Speed Heading
2026-04-26 16:25 -32.74798 -70.70536 2204 ft 0 kts 180°
2026-04-26 16:45 -32.74799 -70.70536 2205 ft 0 kts 180°
2026-04-26 16:46 -32.74805 -70.70534 2207 ft 4 kts 145°
2026-04-26 16:46 -32.74810 -70.70504 2198 ft 5 kts 98°
2026-04-26 16:46 -32.74825 -70.70463 2198 ft 6 kts 120°
2026-04-26 16:46 -32.74830 -70.70453 2201 ft 0 kts 121°
2026-04-26 16:47 -32.74840 -70.70430 2197 ft 6 kts 115°
2026-04-26 16:47 -32.74790 -70.70429 2197 ft 14 kts 337°
2026-04-26 16:47 -32.74677 -70.70474 2198 ft 20 kts 342°
2026-04-26 16:47 -32.74526 -70.70530 2196 ft 24 kts 345°
2026-04-26 16:48 -32.74387 -70.70573 2198 ft 18 kts 341°
2026-04-26 16:48 -32.74288 -70.70613 2197 ft 12 kts 343°
2026-04-26 16:48 -32.74186 -70.70649 2197 ft 15 kts 343°
2026-04-26 16:48 -32.74120 -70.70668 2198 ft 7 kts 351°
2026-04-26 16:49 -32.74082 -70.70675 2200 ft 4 kts 346°
2026-04-26 16:49 -32.74084 -70.70688 2199 ft 2 kts 159°
2026-04-26 16:49 -32.74093 -70.70684 2200 ft 0 kts 163°
2026-04-26 16:50 -32.74130 -70.70670 2198 ft 29 kts 161°
2026-04-26 16:50 -32.74529 -70.70518 2236 ft 77 kts 165°
2026-04-26 16:50 -32.75024 -70.70357 2445 ft 73 kts 163°
2026-04-26 16:51 -32.75483 -70.70195 2638 ft 68 kts 162°
2026-04-26 16:51 -32.75966 -70.70009 2730 ft 75 kts 162°
2026-04-26 16:51 -32.76441 -70.69771 2896 ft 76 kts 143°
2026-04-26 16:51 -32.76810 -70.69320 3093 ft 75 kts 129°
2026-04-26 16:52 -32.77159 -70.68846 3208 ft 77 kts 136°
2026-04-26 16:52 -32.77405 -70.68548 3316 ft 73 kts 139°
2026-04-26 16:52 -32.77918 -70.68021 3498 ft 73 kts 143°
2026-04-26 16:52 -32.78319 -70.67639 3623 ft 75 kts 143°
2026-04-26 16:53 -32.78730 -70.67225 3756 ft 84 kts 142°
2026-04-26 16:53 -32.79172 -70.66791 4053 ft 76 kts 139°
2026-04-26 16:53 -32.79555 -70.66305 4229 ft 85 kts 141°
2026-04-26 16:53 -32.79997 -70.65901 4561 ft 80 kts 147°
2026-04-26 16:54 -32.80496 -70.65554 4780 ft 82 kts 155°
2026-04-26 16:54 -32.81007 -70.65297 5042 ft 81 kts 163°
2026-04-26 16:54 -32.81555 -70.65141 5303 ft 79 kts 169°
2026-04-26 16:54 -32.82100 -70.65012 5502 ft 85 kts 170°
2026-04-26 16:55 -32.82679 -70.65000 5758 ft 80 kts 188°
2026-04-26 16:55 -32.83224 -70.65156 5909 ft 83 kts 193°
2026-04-26 16:55 -32.83783 -70.65282 6127 ft 82 kts 189°
2026-04-26 16:55 -32.84359 -70.65465 6336 ft 87 kts 195°
2026-04-26 16:56 -32.85441 -70.66029 6733 ft 86 kts 203°
2026-04-26 16:56 -32.86031 -70.66315 6835 ft 97 kts 198°
2026-04-26 16:56 -32.86698 -70.66588 6918 ft 105 kts 198°
2026-04-26 16:57 -32.87435 -70.66862 6977 ft 117 kts 195°
2026-04-26 16:57 -32.88219 -70.67105 7064 ft 114 kts 193°
2026-04-26 16:57 -32.89827 -70.67568 7004 ft 118 kts 193°
2026-04-26 16:58 -32.90661 -70.67805 6919 ft 128 kts 192°
2026-04-26 16:58 -32.90953 -70.67886 6922 ft 127 kts 192°
2026-04-26 16:58 -32.93197 -70.68541 6981 ft 122 kts 194°
2026-04-26 16:59 -32.94017 -70.68795 6982 ft 123 kts 194°
2026-04-26 16:59 -32.95667 -70.69344 6978 ft 120 kts 195°
2026-04-26 17:00 -32.97293 -70.69876 6974 ft 121 kts 192°
2026-04-26 17:00 -32.98938 -70.70292 6964 ft 121 kts 189°
2026-04-26 17:00 -32.99778 -70.70455 6953 ft 123 kts 188°
2026-04-26 17:01 -33.00620 -70.70600 6947 ft 123 kts 187°
2026-04-26 17:01 -33.01466 -70.70733 6939 ft 121 kts 186°
2026-04-26 17:01 -33.02304 -70.70856 6919 ft 121 kts 186°
2026-04-26 17:01 -33.03148 -70.70914 6910 ft 123 kts 181°
2026-04-26 17:02 -33.03997 -70.70928 6893 ft 122 kts 180°
2026-04-26 17:02 -33.04563 -70.70935 6879 ft 123 kts 180°
2026-04-26 17:02 -33.05425 -70.70952 6853 ft 124 kts 180°
2026-04-26 17:02 -33.06575 -70.70867 6840 ft 123 kts 175°
2026-04-26 17:03 -33.07425 -70.70763 6821 ft 122 kts 174°
2026-04-26 17:03 -33.07985 -70.70691 6809 ft 122 kts 174°
2026-04-26 17:03 -33.08826 -70.70588 6811 ft 121 kts 175°
2026-04-26 17:03 -33.09940 -70.70457 6809 ft 122 kts 175°
2026-04-26 17:04 -33.10504 -70.70397 6797 ft 122 kts 175°
2026-04-26 17:04 -33.11338 -70.70320 6783 ft 120 kts 176°
2026-04-26 17:04 -33.12171 -70.70261 6771 ft 120 kts 178°
2026-04-26 17:04 -33.13012 -70.70216 6764 ft 122 kts 178°
2026-04-26 17:05 -33.13858 -70.70175 6740 ft 120 kts 178°
2026-04-26 17:05 -33.14697 -70.70130 6732 ft 121 kts 178°
2026-04-26 17:05 -33.15549 -70.70083 6718 ft 123 kts 178°
2026-04-26 17:05 -33.16388 -70.70035 6716 ft 121 kts 178°
2026-04-26 17:06 -33.17227 -70.69986 6714 ft 121 kts 178°
2026-04-26 17:06 -33.18076 -70.69947 6721 ft 121 kts 179°
2026-04-26 17:06 -33.18921 -70.69931 6712 ft 121 kts 180°
2026-04-26 17:06 -33.19757 -70.69938 6564 ft 123 kts 181°
2026-04-26 17:07 -33.20630 -70.69972 6357 ft 125 kts 182°
2026-04-26 17:07 -33.21479 -70.70032 6211 ft 121 kts 184°
2026-04-26 17:07 -33.22321 -70.70127 5993 ft 122 kts 186°
2026-04-26 17:07 -33.23147 -70.70270 5840 ft 118 kts 189°
2026-04-26 17:08 -33.23959 -70.70410 5699 ft 119 kts 185°
2026-04-26 17:08 -33.24764 -70.70467 5633 ft 115 kts 181°
2026-04-26 17:08 -33.25557 -70.70490 5484 ft 116 kts 180°
2026-04-26 17:08 -33.26359 -70.70506 5328 ft 113 kts 180°
2026-04-26 17:09 -33.27132 -70.70466 5170 ft 110 kts 172°
2026-04-26 17:09 -33.27626 -70.70348 5105 ft 107 kts 166°
2026-04-26 17:09 -33.28560 -70.70015 5031 ft 100 kts 163°
2026-04-26 17:09 -33.29232 -70.69762 4925 ft 103 kts 163°
2026-04-26 17:10 -33.29894 -70.69535 4865 ft 94 kts 166°
2026-04-26 17:10 -33.30508 -70.69318 4781 ft 93 kts 163°
2026-04-26 17:10 -33.31122 -70.69081 4782 ft 91 kts 162°
2026-04-26 17:10 -33.31717 -70.68851 4774 ft 90 kts 162°
2026-04-26 17:11 -33.32326 -70.68629 4766 ft 92 kts 164°
2026-04-26 17:11 -33.32921 -70.68422 4750 ft 89 kts 162°
2026-04-26 17:11 -33.33514 -70.68178 4706 ft 91 kts 162°
2026-04-26 17:11 -33.34118 -70.67944 4676 ft 90 kts 162°
2026-04-26 17:12 -33.35317 -70.67526 4641 ft 89 kts 166°
2026-04-26 17:12 -33.35915 -70.67336 4627 ft 90 kts 161°
2026-04-26 17:13 -33.37018 -70.66580 4570 ft 92 kts 142°
2026-04-26 17:13 -33.37492 -70.66063 4549 ft 94 kts 139°
2026-04-26 17:13 -33.38382 -70.64921 4442 ft 96 kts 126°
2026-04-26 17:14 -33.38651 -70.64199 4383 ft 95 kts 112°
2026-04-26 17:14 -33.39067 -70.62673 4206 ft 96 kts 112°
2026-04-26 17:14 -33.39297 -70.61922 4112 ft 96 kts 116°
2026-04-26 17:15 -33.39547 -70.60343 3998 ft 97 kts 96°
2026-04-26 17:15 -33.39548 -70.59523 3935 ft 95 kts 92°
2026-04-26 17:15 -33.39534 -70.58762 3768 ft 91 kts 95°
2026-04-26 17:16 -33.39576 -70.58075 3738 ft 81 kts 101°
2026-04-26 17:16 -33.39613 -70.57398 3651 ft 82 kts 102°
2026-04-26 17:16 -33.39707 -70.56731 3564 ft 81 kts 109°
2026-04-26 17:16 -33.39841 -70.56083 3482 ft 80 kts 110°
2026-04-26 17:17 -33.40015 -70.55446 3404 ft 80 kts 117°
2026-04-26 17:17 -33.40259 -70.54882 3355 ft 76 kts 126°
2026-04-26 17:17 -33.40557 -70.54378 3307 ft 74 kts 133°
2026-04-26 17:17 -33.40929 -70.53956 3215 ft 73 kts 146°
2026-04-26 17:18 -33.41377 -70.53648 3113 ft 72 kts 166°
2026-04-26 17:18 -33.41858 -70.53580 3008 ft 68 kts 192°
2026-04-26 17:18 -33.42302 -70.53705 2904 ft 66 kts 197°
2026-04-26 17:18 -33.42765 -70.53845 2815 ft 72 kts 199°
2026-04-26 17:19 -33.43770 -70.54138 2552 ft 73 kts 195°
2026-04-26 17:19 -33.44247 -70.54273 2426 ft 67 kts 197°
2026-04-26 17:19 -33.44698 -70.54403 2315 ft 66 kts 197°
2026-04-26 17:20 -33.45136 -70.54531 2199 ft 64 kts 196°
2026-04-26 17:20 -33.45394 -70.54607 2162 ft 49 kts 187°
2026-04-26 17:20 -33.45686 -70.54684 2161 ft 13 kts 194°
2026-04-26 17:20 -33.45750 -70.54703 2162 ft 9 kts 198°
2026-04-26 17:21 -33.45789 -70.54749 2162 ft 5 kts 237°
2026-04-26 17:21 -33.45793 -70.54757 2162 ft 0 kts 239°
2026-04-26 17:22 -33.45802 -70.54776 2163 ft 4 kts 239°
2026-04-26 17:22 -33.45819 -70.54805 2161 ft 4 kts 234°
2026-04-26 17:22 -33.45801 -70.54820 2161 ft 6 kts 13°
2026-04-26 17:22 -33.45757 -70.54807 2161 ft 6 kts 13°
2026-04-26 17:23 -33.45736 -70.54795 2161 ft 3 kts 62°
2026-04-26 17:23 -33.45740 -70.54770 2163 ft 3 kts 161°
2026-04-26 17:23 -33.45747 -70.54772 2163 ft 0 kts 197°